Preview of NWS' New Version of Forecast
This preview is not operational and should not be used for support decisions.

Regional Weather Roundup (RWR)

Issued by National Weather Service (NWS)

                            
000
ASUS46 KSEW 221110
RWRWA 

WASHINGTON REGIONAL WEATHER ROUNDUP
NATIONAL WEATHER SERVICE SEATTLE WA
300 AM PST FRI FEB 22 2019

NOTE:"FAIR" INDICATES FEW OR NO CLOUDS BELOW 12,000 FEET WITH NO 
SIGNIFICANT WEATHER AND/OR OBSTRUCTIONS TO VISIBILITY.

WAZ507-509-555>559-221200-
SEATTLE, TACOMA, EVERETT, AND VICINITY
  
CITY           SKY/WX    TMP DP  RH WIND       PRES   REMARKS
EVERETT        CLOUDY    35  28  75 SE10G16   30.05F WCI  27          
BOEING FIELD   MOCLDY    35  28  75 SE7       30.08F                  
RENTON         MOCLDY    35  29  78 SE5       30.09F                  
SEATAC AIRPORT MOCLDY    35  27  72 SE6       30.07F                  
JBLM-MCCHORD   CLOUDY    32  32  99 S8        30.08F                  
PUYALLUP       CLOUDY    36  28  75 CALM      30.07F                  
BREMERTON      MOCLDY    33  31  92 SW8       30.06F                  
JBLM-FT LEWIS  CLOUDY    30  30 100 SE7       30.07F                  
TACOMA NARROWS MOCLDY    35  29  78 SW6       30.08F                  
$$
 
WAZ001-503-506-510-514-515-221200-
NORTH INTERIOR
  
CITY           SKY/WX    TMP DP  RH WIND       PRES   REMARKS
BELLINGHAM     CLOUDY    35  26  69 CALM      30.04F                  
FRIDAY HARBOR  CLOUDY    38  31  76 E6        30.05F                  
EASTSOUND      CLOUDY    39  32  75 S8        30.04S                  
PORT ANGELES   CLOUDY    33  28  81 CALM      30.02F                  
EDIZ HOOK      CLOUDY    38  32  78 S7        30.03F                  
PORT TOWNSEND  CLOUDY    30  30 100 E3        30.04F                  
NAS WHIDBEY    MOCLDY    38  29  70 E8        30.08F                  
ARLINGTON      MOCLDY    29  28  96 CALM      30.07F                  
BURLINGTON     CLOUDY    34  28  80 CALM      30.05F                  
$$
 
WAZ020-022-039-040-504-511-512-221200-
SOUTHWEST INTERIOR
  
CITY           SKY/WX    TMP DP  RH WIND       PRES   REMARKS
SHELTON        CLOUDY    31  28  89 CALM      30.06F                  
OLYMPIA        CLOUDY    31  28  89 SW5       30.09F                  
CHEHALIS       CLOUDY    34  30  86 S7        30.10F                  
KELSO          CLOUDY    34  30  85 S6        30.14S                  
VANCOUVER      PTCLDY    34  27  75 E5        30.15S                  
SCAPPOOSE, OR  PTCLDY    32  28  85 CALM      30.14F                  
PORTLAND, OR   PTCLDY    33  26  75 E9        30.15F                  
$$
 
WAZ021-516-517-221200-
WASHINGTON COAST
  
CITY           SKY/WX    TMP DP  RH WIND       PRES   REMARKS
FORKS          CLOUDY    38  32  79 VRB3      30.02F                  
HOQUIAM        CLOUDY    35  32  88 NE7       30.08F                  
ASTORIA, OR    CLOUDY    32  31  96 S3        30.10S                  
$$
 
WAZ019-023-024-040-567>569-221200-
CASCADE MOUNTAINS AND COLUMBIA GORGE
  
CITY           SKY/WX    TMP DP  RH WIND       PRES   REMARKS
STAMPEDE PASS  CLOUDY    25  20  81 CALM      29.93S                  
TROUTDALE, OR  PTCLDY    34  26  72 E5        30.16R                  
HOOD RIVER, OR PTSUNNY   23  21  93 CALM      30.16S                  
THE DALLES, OR MOCLDY    21  16  81 E3        30.18F                  
$$

WAZ026-027-041>044-520-521-221200-
EAST SLOPES
  
CITY           SKY/WX    TMP DP  RH WIND       PRES   REMARKS
OMAK           CLOUDY    23  17  78 S9        30.04S                  
WENATCHEE      CLOUDY    21  17  84 E12       30.05F WCI   9          
ELLENSBURG     CLOUDY    20  13  74 NE3       30.04F                  
YAKIMA         CLOUDY    17  11  77 SW5       30.10F                  
SUNNYSIDE ARPT CLOUDY    17  14  88 CALM      30.12                   
YAKIMA TC      PTSUNNY   18  14  84 CALM      30.06F                  
$$

WAZ028-034-035-221200-
COLUMBIA BASIN
  
CITY           SKY/WX    TMP DP  RH WIND       PRES   REMARKS
EPHRATA        CLOUDY    20  17  88 NE5       30.07F FOG              
MOSES LAKE     CLOUDY    24  20  84 S6        30.09S FOG              
PASCO          CLOUDY    14  11  87 CALM      30.17S                  
RICHLAND ARPT  FOG       20  19  96 E3        30.16F VSB 1/4          
HERMISTON, OR  MOCLDY    18  14  84 CALM      30.14F                  
$$

WAZ036>038-221200-
NORTHEAST WASHINGTON
  
CITY           SKY/WX    TMP DP  RH WIND       PRES   REMARKS
SPOKANE GEIGER FOG       16  12  84 SE5       30.04F VSB 1/2          
SPOKANE FELTS  MOCLDY    13   9  84 NE3       30.08F                  
FAIRCHILD AFB  FOG       15  15 100 S3        30.02F VSB 1/2          
COEURDALENE,ID CLOUDY    14  12  92 S9        30.04F                  
DEER PARK      CLOUDY    12   9  87 SW3       30.06F FOG              
$$

WAZ029>033-221200-
SOUTHEAST WASHINGTON
  
CITY           SKY/WX    TMP DP  RH WIND       PRES   REMARKS
PULLMAN        CLOUDY    16  14  92 E14       30.06F FOG     WCI   2  
LEWISTON, ID   CLOUDY    20  15  81 S3        30.14S                  
WALLA WALLA    MOCLDY    21  14  74 SE6       30.11S                  
PENDLETON, OR  PTCLDY    20  16  84 S9        30.09F                  
$$